Regional Weather Roundup
Issued by NWS Northern Indiana

Home | Current Version | Previous Version | Graphics & Text | Print | Product List | Glossary On
Versions: 1 2 3 4 5 6 7 8 9 10 11 12 13 14 15 16 17 18 19 20 21 22 23 24 25 26 27 28 29 30 31 32 33 34 35 36 37 38 39 40 41 42 43 44 45 46 47 48 49 50
000
ASUS43 KIWX 121500
RWRIWX

KIWX WEATHER ROUNDUP
NATIONAL WEATHER SERVICE NORTHERN INDIANA
1000 AM EST FRI FEB 12 2016

NOTE: "FAIR" INDICATES FEW OR NO CLOUDS BELOW 12,000 FEET WITH NO
SIGNIFICANT WEATHER AND/OR OBSTRUCTIONS TO VISIBILITY.

* THESE STATIONS ARE NOT UNDER NWS QUALITY CONTROL. THEY ALSO MAY NOT
  REPORT WEATHER SUCH AS PRECIPITATION OR FOG.

INZ001>027-121600-
NORTHERN INDIANA

CITY           SKY/WX    TMP DP  RH WIND       PRES   REMARKS
GARY*          CLOUDY    23   9  54 W14G25    30.15F WCI  11
SOUTH BEND     CLOUDY    19  12  74 SW14      30.10F WCI   6
ELKHART*       CLOUDY    19  10  68 W14       30.10F WCI   6
GOSHEN         CLOUDY    20  11  68 W15       30.10S WCI   6
MONTICELLO*    PTSUNNY   22  14  71 W14       30.16S WCI   9
ANGOLA*        CLOUDY    19  10  68 W10       30.06S WCI   8
FORT WAYNE     CLOUDY    20  10  65 SW14      30.12F WCI   7

$$
INZ028>050-121600-
CENTRAL INDIANA

CITY           SKY/WX    TMP DP  RH WIND       PRES   REMARKS
LAFAYETTE      CLOUDY    22  15  75 W12       30.18S WCI  10
KOKOMO*        CLOUDY    21  10  63 W13       30.14F WCI   9
MUNCIE*        CLOUDY    22   9  57 W10       30.13F WCI  11
INDIANAPOLIS   CLOUDY    24  11  57 W12       30.16F WCI  13

$$
MIZ043>046-050>051-056>058-064>065-071>073-077>080-121600-
SOUTHWEST LOWER MICHIGAN

CITY           SKY/WX    TMP DP  RH WIND       PRES   REMARKS
BATTLE CREEK   LGT SNOW  19  12  74 SW13      30.03F WCI   6
BENTON HARBOR  LGT SNOW  23  15  71 W14       30.09S WCI  11
COLDWATER*     CLOUDY    20  11  68 SW9       30.04F WCI   9
HILLSDALE*     CLOUDY    18   8  64 SW12      30.03S WCI   6
HOLLAND        LGT SNOW  21  15  78 W14G22    30.05F VSB 1   WCI   8
GRAND RAPIDS   LGT SNOW  21  15  78 W13       30.02F VSB 1   WCI   9
KALAMAZOO      LGT SNOW  18  12  77 SW8       30.05F WCI   8
STURGIS*       CLOUDY    19  10  67 W13G18    30.05F WCI   6
THREE RIVERS*  LGT SNOW  20  13  72 W9G17     30.07S WCI  10

$$
OHZ001>008-015>018-024>025-121600-
NORTHWEST OHIO

CITY           SKY/WX    TMP DP  RH WIND       PRES   REMARKS
DEFIANCE       CLOUDY    21   9  59 SW12      30.10F WCI   9
FINDLAY        CLOUDY    21  11  65 SW13      30.10F WCI   9
TOLEDO EXPRESS CLOUDY    19   8  62 SW10      30.08F WCI   7
TOLEDO METCALF   N/A    N/A N/A N/A MISG      30.09F
LIMA           CLOUDY    19  10  68 SW14      30.10F WCI   6

$$
AND FOR LAKE MICHIGAN COASTAL AND OPEN LAKE BUOY OBSERVATIONS

STATION/POSITION TEMP    WIND        PRES    VSBY  WAVE
                 AIR SEA DIR/SP/G                  HT/PER
                 (F)     (DEG/KT/KT) (MB)    (MI)  (FT/S)
CALUMET HARBOR    21     250/  8/ 11 1019.9S
MICHIGAN CITY     22     230/ 19/ 21   N/A
BURNS HARBOR      22     260/ 16/ 20 1021.0F
SAINT JOSEPH      25     240/ 18/ 22 1020.0R

$$
&&



USA.gov is the U.S. government's official web portal to all federal, state and local government web resources and services.